This demonstration page uses our WeatherBlox Daily Observations layout. Learn more.

Left ArrowRight Arrow

Hourly Observations for March 3, 2017

Temp ( °F °C ) Dew Point ( °F °C ) Humidity (%) Winds ( mph kmh ) Pressure ( in mb ) Visibility ( mi km ) Precip ( " mm )
12:53 am 00:53 Partly Cloudy 32 undefined 19 -7.2 59 59 W 6 9 30.39 1029 10 16 N/A
1:53 am 01:53 Clear 31 -0.6 20 -6.7 64 64 W 6 9 30.40 1030 10 16 N/A
2:53 am 02:53 Clear 30 -1.1 20 -6.7 66 66 W 6 9 30.41 1030 10 16 N/A
3:53 am 03:53 Cloudy 31 -0.6 21 -6.1 67 67 W 5 7 30.40 1030 10 16 N/A
4:53 am 04:53 Cloudy 31 -0.6 20 -6.7 64 64 W 7 11 30.42 1030 10 16 N/A
5:53 am 05:53 Cloudy 31 -0.6 22 -5.6 69 69 W 5 7 30.44 1031 10 16 N/A
6:11 am 06:11 Cloudy with Light Snow 30 -1.1 23 -5 75 75 WNW 12 19 30.45 1031 3 4 N/A
6:15 am 06:15 Cloudy with Light Snow 29 -1.7 24 -4.4 82 82 W 8 13 30.45 1031 2 2 N/A
6:39 am 06:39 Cloudy with Light Snow 28 -2.2 24 -4.4 85 85 WNW 12 19 30.48 1032 2 3 N/A
6:45 am 06:45 Cloudy with Light Snow 28 -2.2 24 -4.4 85 85 WNW 10 17 30.48 1032 4 6 N/A
6:53 am 06:53 Cloudy with Light Snow 28 -2.2 24 -4.4 85 85 W 9 15 30.47 1032 3 5 N/A
7:01 am 07:01 Cloudy with Light Snow 28 -2.2 24 -4.4 85 85 W 6 9 30.48 1032 3 4 0.01 0.25
7:10 am 07:10 Cloudy with Light Snow 29 -1.7 22 -5.6 75 75 W 10 17 30.48 1032 7 11 0.01 0.25
7:53 am 07:53 Cloudy 29 -1.7 23 -5 78 78 W 9 15 30.50 1033 10 16 0.01 0.25
8:53 am 08:53 Partly Cloudy 31 -0.6 19 -7.2 61 61 NW 10 17 30.54 1034 10 16 N/A
9:53 am 09:53 Sunny 32 undefined 18 -7.8 56 56 NW 15 24 30.56 1035 10 16 N/A
10:53 am 10:53 Partly Cloudy 33 0.6 18 -7.8 54 54 WNW 10 17 30.59 1036 10 16 N/A
11:53 am 11:53 Mostly Cloudy 33 0.6 16 -8.9 49 49 WNW 10 17 30.61 1037 10 16 N/A
12:53 pm 12:53 Partly Cloudy 37 2.8 16 -8.9 42 42 W 8 13 30.61 1037 10 16 N/A
1:53 pm 13:53 Mostly Sunny 36 2.2 12 -11.1 37 37 WNW 17 28 30.61 1037 10 16 N/A
2:53 pm 14:53 Mostly Sunny 37 2.8 13 -10.6 37 37 NW 17 28 30.60 1036 10 16 N/A
3:53 pm 15:53 Sunny 37 2.8 11 -11.7 34 34 W 12 19 30.61 1037 10 16 N/A
4:53 pm 16:53 Sunny 37 2.8 8 -13.3 30 30 WNW 13 20 30.61 1037 10 16 N/A
5:53 pm 17:53 Sunny 35 1.7 11 -11.7 37 37 NW 9 15 30.61 1037 10 16 N/A
6:53 pm 18:53 Clear 31 -0.6 12 -11.1 45 45 WNW 5 7 30.62 1037 10 16 N/A
7:53 pm 19:53 Clear 29 -1.7 16 -8.9 58 58 N N/A 30.62 1037 10 16 N/A
8:53 pm 20:53 Clear 25 -3.9 17 -8.3 72 72 N N/A 30.62 1037 10 16 N/A
9:53 pm 21:53 Clear 25 -3.9 19 -7.2 78 78 N N/A 30.63 1037 10 16 N/A
10:53 pm 22:53 Clear 25 -3.9 19 -7.2 78 78 N N/A 30.63 1037 10 16 N/A
11:53 pm 23:53 Clear 26 -3.3 22 -5.6 84 84 N N/A 30.63 1037 10 16 N/A

Powered by AerisWeather